| time (UTC) | temp C | wind direction | speed KPH | gust KPH | rain 1hr cm | rain 24hr cm | rain mn cm | humidity % | barometer mb |
| 20260905152728 | 20 | 175 | 0.0 | 0.0 | 0.00 | 0.15 | 0.15 | 69 | 1026.0 |
| 20260905152225 | 20 | 175 | 0.0 | 0.0 | 0.00 | 0.15 | 0.15 | 69 | 1026.0 |
| 20260905151717 | 21 | 189 | 0.0 | 6.4 | 0.00 | 0.15 | 0.15 | 68 | 1026.0 |
| 20260905151219 | 21 | 169 | 0.0 | 9.7 | 0.00 | 0.15 | 0.15 | 70 | 1026.0 |
| 20260905150714 | 20 | 185 | 1.6 | 9.7 | 0.00 | 0.15 | 0.15 | 69 | 1025.9 |
| 20260905145731 | 20 | 213 | 4.8 | 12.9 | 0.00 | 0.15 | 0.15 | 71 | 1026.0 |
| 20260905145223 | 20 | 167 | 6.4 | 12.9 | 0.00 | 0.15 | 0.15 | 72 | 1026.0 |
| 20260905144722 | 20 | 169 | 6.4 | 12.9 | 0.00 | 0.15 | 0.15 | 72 | 1026.0 |
| 20260905144229 | 20 | 163 | 3.2 | 9.7 | 0.00 | 0.15 | 0.15 | 74 | 1026.0 |
| 20260905143716 | 20 | 200 | 3.2 | 9.7 | 0.00 | 0.15 | 0.15 | 73 | 1026.1 |
| 20260905143221 | 20 | 174 | 3.2 | 9.7 | 0.00 | 0.15 | 0.15 | 72 | 1026.1 |
| 20260905142230 | 20 | 145 | 1.6 | 9.7 | 0.00 | 0.15 | 0.15 | 72 | 1026.1 |
| 20260905141717 | 19 | 180 | 1.6 | 9.7 | 0.00 | 0.15 | 0.15 | 73 | 1026.2 |
| 20260905141221 | 19 | 178 | 3.2 | 9.7 | 0.00 | 0.15 | 0.15 | 74 | 1026.2 |
| 20260905140226 | 19 | 176 | 4.8 | 9.7 | 0.00 | 0.15 | 0.15 | 74 | 1026.3 |
| 20260905135726 | 19 | 178 | 3.2 | 9.7 | 0.00 | 0.15 | 0.15 | 73 | 1026.3 |
| 20260905135225 | 18 | 176 | 1.6 | 11.3 | 0.00 | 0.15 | 0.15 | 74 | 1026.3 |
| 20260905134748 | 18 | 184 | 1.6 | 11.3 | 0.00 | 0.15 | 0.15 | 75 | 1026.3 |
| 20260905134224 | 18 | 194 | 3.2 | 9.7 | 0.00 | 0.15 | 0.15 | 74 | 1026.4 |
| 20260905133220 | 17 | 167 | 1.6 | 11.3 | 0.00 | 0.15 | 0.15 | 74 | 1026.3 |
| 20260905132221 | 18 | 160 | 6.4 | 12.9 | 0.00 | 0.15 | 0.15 | 72 | 1026.3 |
| 20260905131718 | 18 | 159 | 3.2 | 11.3 | 0.00 | 0.15 | 0.15 | 72 | 1026.2 |
| 20260905131247 | 18 | 172 | 0.0 | 0.0 | 0.00 | 0.15 | 0.15 | 73 | 1026.3 |
| 20260905130706 | 17 | 163 | 0.0 | 9.7 | 0.00 | 0.15 | 0.15 | 76 | 1026.3 |
| 20260905130217 | 17 | 153 | 1.6 | 9.7 | 0.00 | 0.15 | 0.15 | 76 | 1026.2 |
| 20260905125730 | 17 | 173 | 3.2 | 11.3 | 0.00 | 0.15 | 0.15 | 76 | 1026.2 |
| 20260905125215 | 17 | 171 | 3.2 | 11.3 | 0.00 | 0.15 | 0.15 | 76 | 1026.1 |
| 20260905124721 | 17 | 165 | 3.2 | 12.9 | 0.00 | 0.15 | 0.15 | 76 | 1026.1 |
| 20260905123711 | 17 | 173 | 3.2 | 12.9 | 0.00 | 0.15 | 0.15 | 78 | 1026.1 |
| 20260905123209 | 17 | 131 | 4.8 | 12.9 | 0.00 | 0.15 | 0.15 | 79 | 1026.2 |
| 20260905122715 | 17 | 156 | 4.8 | 12.9 | 0.00 | 0.15 | 0.15 | 78 | 1026.1 |
| 20260905121720 | 17 | 155 | 3.2 | 11.3 | 0.00 | 0.15 | 0.15 | 76 | 1026.0 |
| 20260905120226 | 18 | 141 | 0.0 | 12.9 | 0.03 | 0.15 | 0.15 | 73 | 1025.9 |
| 20260905115730 | 18 | 150 | 3.2 | 12.9 | 0.03 | 0.15 | 0.15 | 73 | 1025.9 |
| 20260905115231 | 18 | 328 | 6.4 | 14.5 | 0.03 | 0.15 | 0.15 | 72 | 1026.0 |
| 20260905114709 | 18 | 355 | 8.0 | 14.5 | 0.03 | 0.15 | 0.15 | 72 | 1026.1 |
| 20260905114216 | 18 | 311 | 6.4 | 14.5 | 0.03 | 0.15 | 0.15 | 72 | 1026.0 |
| 20260905113722 | 18 | 332 | 4.8 | 11.3 | 0.03 | 0.15 | 0.15 | 71 | 1025.9 |
| 20260905113211 | 18 | 258 | 4.8 | 16.1 | 0.03 | 0.15 | 0.15 | 72 | 1025.9 |
| 20260905112725 | 18 | 265 | 4.8 | 16.1 | 0.03 | 0.15 | 0.15 | 71 | 1026.0 |
| 20260905112220 | 18 | 295 | 6.4 | 16.1 | 0.03 | 0.15 | 0.15 | 70 | 1026.0 |
| 20260905111716 | 18 | 231 | 6.4 | 16.1 | 0.03 | 0.15 | 0.15 | 69 | 1026.0 |
| 20260905111229 | 18 | 293 | 4.8 | 16.1 | 0.03 | 0.15 | 0.15 | 70 | 1025.9 |
| 20260905110715 | 18 | 328 | 4.8 | 9.7 | 0.00 | 0.13 | 0.13 | 72 | 1025.9 |
| 20260905110221 | 18 | 242 | 4.8 | 9.7 | 0.00 | 0.13 | 0.13 | 74 | 1025.8 |
| 20260905105729 | 18 | 282 | 3.2 | 14.5 | 0.00 | 0.13 | 0.13 | 74 | 1025.8 |
| 20260905105226 | 18 | 290 | 3.2 | 17.7 | 0.00 | 0.13 | 0.13 | 74 | 1025.7 |
| 20260905104212 | 18 | 339 | 6.4 | 17.7 | 0.00 | 0.13 | 0.13 | 76 | 1025.5 |
| 20260905103706 | 18 | 323 | 4.8 | 14.5 | 0.00 | 0.13 | 0.13 | 75 | 1025.7 |
| 20260905103222 | 18 | 346 | 3.2 | 14.5 | 0.00 | 0.13 | 0.13 | 74 | 1025.7 |
| 20260905102723 | 18 | 347 | 4.8 | 14.5 | 0.00 | 0.13 | 0.13 | 73 | 1025.7 |
| 20260905102230 | 18 | 255 | 3.2 | 14.5 | 0.00 | 0.13 | 0.13 | 72 | 1025.7 |
| 20260905101720 | 19 | 26 | 1.6 | 14.5 | 0.00 | 0.13 | 0.13 | 70 | 1025.5 |
| 20260905100226 | 18 | 209 | 0.0 | 0.0 | 0.00 | 0.13 | 0.13 | 74 | 1025.3 |
| 20260905095716 | 18 | 336 | 0.0 | 0.0 | 0.00 | 0.13 | 0.13 | 75 | 1025.3 |
| 20260905095210 | 18 | 151 | 0.0 | 0.0 | 0.00 | 0.13 | 0.13 | 73 | 1025.3 |
| 20260905094722 | 17 | 0 | 0.0 | 0.0 | 0.00 | 0.13 | 0.13 | 76 | 1025.3 |
| 20260905094218 | 17 | 267 | 0.0 | 0.0 | 0.00 | 0.13 | 0.13 | 78 | 1025.3 |
| 20260905093726 | 17 | 263 | 0.0 | 0.0 | 0.00 | 0.13 | 0.13 | 81 | 1025.2 |
| 20260905093228 | 17 | 97 | 0.0 | 0.0 | 0.00 | 0.13 | 0.13 | 78 | 1025.3 |
| 20260905092716 | 17 | 327 | 0.0 | 0.0 | 0.00 | 0.13 | 0.13 | 80 | 1025.3 |
| 20260905092216 | 17 | 327 | 0.0 | 4.8 | 0.00 | 0.13 | 0.13 | 79 | 1025.3 |
| 20260905091223 | 16 | 211 | 0.0 | 4.8 | 0.00 | 0.13 | 0.13 | 77 | 1025.2 |
| 20260905090715 | 16 | 278 | 0.0 | 0.0 | 0.00 | 0.13 | 0.13 | 83 | 1025.2 |
| 20260905090234 | 16 | 88 | 0.0 | 11.3 | 0.00 | 0.13 | 0.13 | 85 | 1025.1 |
| 20260905085217 | 16 | 26 | 1.6 | 8.0 | 0.00 | 0.13 | 0.13 | 87 | 1025.0 |
| 20260905084711 | 16 | 331 | 0.0 | 6.4 | 0.00 | 0.13 | 0.13 | 90 | 1025.0 |
| 20260905084215 | 16 | 229 | 0.0 | 0.0 | 0.00 | 0.13 | 0.13 | 91 | 1025.0 |
| 20260905083715 | 16 | 229 | 0.0 | 0.0 | 0.03 | 0.13 | 0.13 | 91 | 1024.8 |
| 20260905083228 | 16 | 229 | 0.0 | 0.0 | 0.05 | 0.13 | 0.13 | 92 | 1024.8 |
| 20260905082711 | 16 | 229 | 0.0 | 0.0 | 0.08 | 0.13 | 0.13 | 91 | 1024.7 |
| 20260905082213 | 16 | 229 | 0.0 | 0.0 | 0.10 | 0.13 | 0.13 | 91 | 1024.7 |
| 20260905081715 | 16 | 229 | 0.0 | 0.0 | 0.10 | 0.13 | 0.13 | 91 | 1024.6 |
| 20260905080720 | 16 | 234 | 0.0 | 0.0 | 0.10 | 0.13 | 0.13 | 91 | 1024.6 |
| 20260905080229 | 16 | 234 | 0.0 | 0.0 | 0.10 | 0.13 | 0.13 | 91 | 1024.5 |
| 20260905075740 | 16 | 234 | 0.0 | 0.0 | 0.10 | 0.13 | 0.13 | 91 | 1024.4 |
| 20260905074213 | 16 | 269 | 0.0 | 0.0 | 0.08 | 0.10 | 0.10 | 90 | 1024.4 |
| 20260905073219 | 16 | 269 | 0.0 | 0.0 | 0.05 | 0.05 | 0.05 | 89 | 1024.3 |
| 20260905072718 | 16 | 215 | 0.0 | 0.0 | 0.00 | 0.03 | 0.03 | 89 | 1024.1 |
| 20260905072218 | 16 | 202 | 0.0 | 0.0 | 0.00 | 0.03 | 0.03 | 88 | 1024.1 |
| 20260905071216 | 16 | 178 | 0.0 | 0.0 | 0.00 | 0.03 | 0.03 | 89 | 1024.0 |
| 20260905065716 | 16 | 178 | 0.0 | 0.0 | 0.00 | 0.03 | 0.03 | 88 | 1023.8 |
| 20260905065228 | 16 | 178 | 0.0 | 0.0 | 0.00 | 0.03 | 0.03 | 89 | 1023.8 |
| 20260905064218 | 16 | 178 | 0.0 | 0.0 | 0.00 | 0.03 | 0.03 | 89 | 1023.8 |
| 20260905062712 | 16 | 178 | 0.0 | 0.0 | 0.00 | 0.03 | 0.03 | 89 | 1023.6 |
| 20260905062217 | 16 | 179 | 0.0 | 0.0 | 0.00 | 0.03 | 0.03 | 89 | 1023.6 |
| 20260905061717 | 16 | 178 | 0.0 | 0.0 | 0.00 | 0.03 | 0.03 | 89 | 1023.5 |
| 20260905061225 | 16 | 178 | 0.0 | 0.0 | 0.00 | 0.03 | 0.03 | 90 | 1023.4 |
| 20260905060724 | 16 | 178 | 0.0 | 0.0 | 0.00 | 0.03 | 0.03 | 89 | 1023.4 |
| 20260905060227 | 16 | 138 | 0.0 | 0.0 | 0.00 | 0.03 | 0.03 | 89 | 1023.3 |
| 20260905055732 | 16 | 138 | 0.0 | 0.0 | 0.00 | 0.03 | 0.03 | 89 | 1023.3 |
| 20260905055213 | 16 | 138 | 0.0 | 0.0 | 0.00 | 0.03 | 0.03 | 89 | 1023.3 |
| 20260905054727 | 16 | 138 | 0.0 | 0.0 | 0.00 | 0.03 | 0.03 | 90 | 1023.3 |
| 20260905054218 | 16 | 138 | 0.0 | 0.0 | 0.00 | 0.03 | 0.03 | 89 | 1023.2 |
| 20260905053732 | 16 | 149 | 0.0 | 0.0 | 0.00 | 0.03 | 0.03 | 89 | 1023.1 |
| 20260905052749 | 16 | 167 | 0.0 | 0.0 | 0.00 | 0.03 | 0.03 | 89 | 1023.1 |
| 20260905052209 | 16 | 167 | 0.0 | 0.0 | 0.00 | 0.03 | 0.03 | 89 | 1023.1 |
| 20260905051716 | 16 | 167 | 0.0 | 0.0 | 0.00 | 0.03 | 0.03 | 89 | 1022.8 |
| 20260905051215 | 16 | 167 | 0.0 | 0.0 | 0.00 | 0.03 | 0.03 | 89 | 1023.1 |
| 20260905050723 | 16 | 167 | 0.0 | 0.0 | 0.03 | 0.03 | 0.03 | 89 | 1023.0 |
| 20260905050222 | 16 | 162 | 0.0 | 0.0 | 0.03 | 0.03 | 0.03 | 88 | 1022.8 |
| 20260905045734 | 16 | 162 | 0.0 | 0.0 | 0.03 | 0.03 | 0.03 | 88 | 1022.6 |
| 20260905045216 | 16 | 162 | 0.0 | 0.0 | 0.03 | 0.03 | 0.03 | 87 | 1022.4 |
| 20260905043724 | 16 | 106 | 0.0 | 0.0 | 0.03 | 0.03 | 0.03 | 86 | 1022.1 |
| 20260905042726 | 16 | 107 | 0.0 | 0.0 | 0.03 | 0.03 | 0.03 | 86 | 1022.1 |
| 20260905042227 | 16 | 107 | 0.0 | 0.0 | 0.03 | 0.03 | 0.03 | 85 | 1022.1 |
| 20260905041216 | 16 | 107 | 0.0 | 0.0 | 0.00 | 0.00 | 0.00 | 83 | 1022.1 |
| 20260905040714 | 16 | 107 | 0.0 | 0.0 | 0.00 | 0.00 | 0.00 | 83 | 1022.2 |
| 20260905040211 | 16 | 107 | 0.0 | 0.0 | 0.00 | 0.00 | 0.00 | 82 | 1022.3 |
| 20260905035231 | 16 | 107 | 0.0 | 0.0 | 0.00 | 0.00 | 0.00 | 81 | 1022.1 |
| 20260905034730 | 16 | 42 | 0.0 | 0.0 | 0.00 | 0.00 | 0.00 | 81 | 1022.2 |
| 20260905033721 | 16 | 33 | 0.0 | 0.0 | 0.00 | 0.00 | 0.00 | 80 | 1022.1 |
| 20260905033208 | 16 | 33 | 0.0 | 0.0 | 0.00 | 0.00 | 0.00 | 80 | 1022.1 |
| 20260905032715 | 16 | 33 | 0.0 | 0.0 | 0.00 | 0.00 | 0.00 | 80 | 1022.1 |
| 20260905032211 | 16 | 33 | 0.0 | 0.0 | 0.00 | 0.00 | 0.00 | 80 | 1022.0 |
| 20260905031719 | 16 | 33 | 0.0 | 0.0 | 0.00 | 0.00 | 0.00 | 79 | 1022.0 |
| 20260905031214 | 17 | 33 | 0.0 | 0.0 | 0.00 | 0.00 | 0.00 | 79 | 1022.0 |
| 20260905030241 | 17 | 32 | 0.0 | 0.0 | 0.00 | 0.00 | 0.00 | 79 | 1021.9 |
| 20260905025723 | 17 | 21 | 0.0 | 0.0 | 0.00 | 0.00 | 0.00 | 78 | 1021.9 |
| 20260905024725 | 17 | 21 | 0.0 | 0.0 | 0.00 | 0.00 | 0.00 | 77 | 1021.8 |
| 20260905024211 | 17 | 5 | 0.0 | 0.0 | 0.00 | 0.00 | 0.00 | 77 | 1021.5 |
| 20260905023723 | 17 | 5 | 0.0 | 0.0 | 0.00 | 0.00 | 0.00 | 77 | 1021.7 |
| 20260905023227 | 17 | 0 | 0.0 | 0.0 | 0.00 | 0.00 | 0.00 | 76 | 1021.8 |
| 20260905022720 | 17 | 351 | 0.0 | 0.0 | 0.00 | 0.00 | 0.00 | 76 | 1021.7 |
| 20260905022220 | 17 | 351 | 0.0 | 0.0 | 0.00 | 0.00 | 0.00 | 76 | 1021.7 |
| 20260905021250 | 17 | 351 | 0.0 | 0.0 | 0.00 | 0.00 | 0.00 | 76 | 1021.8 |
| 20260905020719 | 17 | 5 | 0.0 | 0.0 | 0.00 | 0.00 | 0.00 | 76 | 1021.7 |
| 20260905020213 | 18 | 5 | 0.0 | 0.0 | 0.00 | 0.00 | 0.00 | 75 | 1021.7 |
| 20260905015721 | 18 | 5 | 0.0 | 0.0 | 0.00 | 0.00 | 0.00 | 75 | 1021.8 |
| 20260905014721 | 18 | 24 | 0.0 | 9.7 | 0.00 | 0.00 | 0.00 | 74 | 1021.7 |
| 20260905014229 | 18 | 355 | 1.6 | 9.7 | 0.00 | 0.00 | 0.00 | 74 | 1021.7 |
| 20260905013715 | 18 | 302 | 1.6 | 11.3 | 0.00 | 0.00 | 0.00 | 74 | 1021.7 |
| 20260905013211 | 18 | 0 | 1.6 | 11.3 | 0.00 | 0.00 | 0.00 | 73 | 1021.7 |
| 20260905012232 | 18 | 322 | 0.0 | 4.8 | 0.00 | 0.00 | 0.00 | 71 | 1021.7 |
| 20260905011726 | 18 | 336 | 0.0 | 3.2 | 0.00 | 0.00 | 0.00 | 70 | 1021.5 |
| 20260905011215 | 18 | 336 | 0.0 | 0.0 | 0.00 | 0.00 | 0.00 | 70 | 1021.4 |
| 20260905010731 | 18 | 5 | 0.0 | 4.8 | 0.00 | 0.00 | 0.00 | 69 | 1021.3 |
| 20260905010217 | 18 | 17 | 0.0 | 4.8 | 0.00 | 0.00 | 0.00 | 68 | 1021.3 |
| 20260905005707 | 18 | 355 | 0.0 | 8.0 | 0.00 | 0.00 | 0.00 | 68 | 1021.4 |
| 20260905004711 | 18 | 355 | 1.6 | 12.9 | 0.00 | 0.00 | 0.00 | 67 | 1021.3 |
| 20260905003729 | 19 | 5 | 8.0 | 16.1 | 0.00 | 0.00 | 0.00 | 66 | 1021.4 |
| 20260905003216 | 19 | 323 | 6.4 | 16.1 | 0.00 | 0.00 | 0.00 | 66 | 1021.3 |
| 20260905002709 | 19 | 336 | 1.6 | 12.9 | 0.00 | 0.00 | 0.00 | 66 | 1021.2 |
| 20260905002220 | 19 | 337 | 0.0 | 17.7 | 0.00 | 0.00 | 0.00 | 65 | 1021.1 |
| 20260905001718 | 20 | 324 | 1.6 | 19.3 | 0.00 | 0.00 | 0.00 | 65 | 1021.1 |
| 20260905001231 | 20 | 324 | 6.4 | 19.3 | 0.00 | 0.00 | 0.00 | 65 | 1021.1 |
| 20260904235721 | 20 | 350 | 6.4 | 17.7 | 0.00 | 0.00 | 0.00 | 64 | 1021.1 |
| 20260904235227 | 20 | 333 | 3.2 | 12.9 | 0.00 | 0.00 | 0.00 | 64 | 1021.1 |
| 20260904234714 | 20 | 322 | 3.2 | 12.9 | 0.00 | 0.00 | 0.00 | 63 | 1021.0 |
| 20260904234232 | 20 | 333 | 1.6 | 8.0 | 0.00 | 0.00 | 0.00 | 62 | 1021.0 |
| 20260904233728 | 20 | 5 | 1.6 | 8.0 | 0.00 | 0.00 | 0.00 | 62 | 1021.0 |
| 20260904233225 | 20 | 324 | 0.0 | 8.0 | 0.00 | 0.00 | 0.00 | 61 | 1021.0 |
| 20260904232217 | 21 | 348 | 1.6 | 9.7 | 0.00 | 0.00 | 0.00 | 59 | 1020.9 |
| 20260904231721 | 21 | 336 | 1.6 | 14.5 | 0.00 | 0.00 | 0.00 | 58 | 1021.0 |
| 20260904231228 | 21 | 349 | 3.2 | 14.5 | 0.00 | 0.00 | 0.00 | 57 | 1021.0 |
| 20260904230722 | 22 | 351 | 4.8 | 14.5 | 0.00 | 0.00 | 0.00 | 56 | 1020.9 |
| 20260904230246 | 22 | 5 | 4.8 | 17.7 | 0.00 | 0.00 | 0.00 | 55 | 1020.9 |
| 20260904225727 | 22 | 347 | 6.4 | 17.7 | 0.00 | 0.00 | 0.00 | 56 | 1020.9 |
| 20260904225222 | 22 | 340 | 6.4 | 11.3 | 0.00 | 0.00 | 0.00 | 55 | 1020.8 |
| 20260904224717 | 22 | 13 | 4.8 | 14.5 | 0.00 | 0.00 | 0.00 | 56 | 1020.8 |
| 20260904224215 | 21 | 335 | 6.4 | 14.5 | 0.00 | 0.00 | 0.00 | 56 | 1020.7 |
| 20260904223712 | 21 | 324 | 4.8 | 12.9 | 0.00 | 0.00 | 0.00 | 57 | 1020.6 |
| 20260904222725 | 21 | 9 | 3.2 | 12.9 | 0.00 | 0.00 | 0.00 | 59 | 1020.6 |
| 20260904221724 | 20 | 342 | 0.0 | 6.4 | 0.00 | 0.00 | 0.00 | 62 | 1020.5 |
| 20260904220713 | 20 | 31 | 0.0 | 0.0 | 0.00 | 0.00 | 0.00 | 63 | 1020.5 |
| 20260904220225 | 20 | 87 | 0.0 | 0.0 | 0.00 | 0.00 | 0.00 | 63 | 1020.5 |
| 20260904215713 | 20 | 307 | 0.0 | 0.0 | 0.00 | 0.00 | 0.00 | 63 | 1020.5 |
| 20260904215227 | 20 | 344 | 0.0 | 0.0 | 0.00 | 0.00 | 0.00 | 63 | 1020.5 |
| 20260904213718 | 20 | 325 | 0.0 | 6.4 | 0.00 | 0.00 | 0.00 | 63 | 1020.4 |
| 20260904213217 | 20 | 311 | 0.0 | 6.4 | 0.00 | 0.00 | 0.00 | 63 | 1020.4 |
| 20260904212712 | 20 | 84 | 0.0 | 0.0 | 0.00 | 0.00 | 0.00 | 63 | 1020.4 |
| 20260904212255 | 20 | 355 | 0.0 | 0.0 | 0.00 | 0.00 | 0.00 | 64 | 1020.4 |
| 20260904211220 | 20 | 13 | 0.0 | 0.0 | 0.00 | 0.00 | 0.00 | 63 | 1020.4 |
| 20260904210726 | 20 | 355 | 0.0 | 0.0 | 0.00 | 0.00 | 0.00 | 63 | 1020.4 |
| 20260904210216 | 20 | 344 | 0.0 | 0.0 | 0.00 | 0.00 | 0.00 | 63 | 1020.4 |
| 20260904205718 | 21 | 19 | 0.0 | 0.0 | 0.00 | 0.00 | 0.00 | 63 | 1020.4 |
| 20260904204218 | 21 | 38 | 0.0 | 0.0 | 0.00 | 0.00 | 0.00 | 61 | 1020.4 |
| 20260904203721 | 21 | 44 | 0.0 | 0.0 | 0.00 | 0.00 | 0.00 | 61 | 1020.4 |
| 20260904203220 | 21 | 355 | 0.0 | 0.0 | 0.00 | 0.00 | 0.00 | 61 | 1020.4 |
| 20260904202728 | 21 | 351 | 0.0 | 0.0 | 0.00 | 0.00 | 0.00 | 61 | 1020.5 |
| 20260904202230 | 22 | 38 | 0.0 | 0.0 | 0.00 | 0.00 | 0.00 | 60 | 1020.5 |
| 20260904201725 | 22 | 63 | 0.0 | 0.0 | 0.00 | 0.00 | 0.00 | 59 | 1020.6 |
| 20260904200730 | 22 | 313 | 0.0 | 0.0 | 0.00 | 0.00 | 0.00 | 58 | 1020.4 |
| 20260904200210 | 22 | 313 | 0.0 | 3.2 | 0.00 | 0.00 | 0.00 | 57 | 1020.4 |
| 20260904195720 | 22 | 9 | 0.0 | 8.0 | 0.00 | 0.00 | 0.00 | 57 | 1020.4 |
| 20260904195231 | 23 | 150 | 0.0 | 17.7 | 0.00 | 0.00 | 0.00 | 57 | 1020.3 |
| 20260904194711 | 23 | 196 | 1.6 | 17.7 | 0.00 | 0.00 | 0.00 | 54 | 1020.3 |
| 20260904194216 | 23 | 309 | 1.6 | 17.7 | 0.00 | 0.00 | 0.00 | 55 | 1020.3 |
| 20260904193726 | 23 | 344 | 3.2 | 12.9 | 0.00 | 0.00 | 0.00 | 55 | 1020.3 |
| 20260904193212 | 23 | 13 | 4.8 | 20.9 | 0.00 | 0.00 | 0.00 | 56 | 1020.3 |
| 20260904191713 | 22 | 5 | 1.6 | 9.7 | 0.00 | 0.00 | 0.00 | 57 | 1020.3 |
| 20260904191219 | 22 | 71 | 0.0 | 9.7 | 0.00 | 0.00 | 0.00 | 58 | 1020.3 |
| 20260904190716 | 22 | 37 | 0.0 | 9.7 | 0.00 | 0.00 | 0.00 | 59 | 1020.1 |
| 20260904190215 | 22 | 328 | 0.0 | 0.0 | 0.00 | 0.00 | 0.00 | 58 | 1020.0 |
| 20260904185720 | 23 | 0 | 0.0 | 0.0 | 0.00 | 0.00 | 0.00 | 58 | 1020.0 |
| 20260904185224 | 23 | 103 | 0.0 | 0.0 | 0.00 | 0.00 | 0.00 | 58 | 1020.0 |
| 20260904184717 | 23 | 343 | 0.0 | 3.2 | 0.00 | 0.00 | 0.00 | 58 | 1019.9 |
| 20260904184218 | 23 | 80 | 0.0 | 3.2 | 0.00 | 0.00 | 0.00 | 57 | 1019.8 |
| 20260904183722 | 23 | 325 | 0.0 | 3.2 | 0.00 | 0.00 | 0.00 | 57 | 1019.9 |
| 20260904183219 | 23 | 53 | 0.0 | 0.0 | 0.00 | 0.00 | 0.00 | 56 | 1019.8 |
| 20260904182733 | 23 | 5 | 0.0 | 0.0 | 0.00 | 0.00 | 0.00 | 56 | 1019.7 |
| 20260904182220 | 23 | 182 | 0.0 | 0.0 | 0.00 | 0.00 | 0.00 | 56 | 1019.7 |
| 20260904181728 | 23 | 355 | 0.0 | 0.0 | 0.00 | 0.00 | 0.00 | 55 | 1019.7 |
| 20260904181223 | 24 | 276 | 0.0 | 0.0 | 0.00 | 0.00 | 0.00 | 55 | 1019.5 |
| 20260904180708 | 24 | 276 | 0.0 | 0.0 | 0.00 | 0.00 | 0.00 | 54 | 1019.5 |
| 20260904180210 | 24 | 12 | 0.0 | 0.0 | 0.00 | 0.00 | 0.00 | 53 | 1019.5 |
| 20260904175726 | 24 | 302 | 0.0 | 9.7 | 0.00 | 0.00 | 0.00 | 53 | 1019.4 |
| 20260904175213 | 25 | 5 | 0.0 | 11.3 | 0.00 | 0.00 | 0.00 | 52 | 1019.4 |
| 20260904173724 | 25 | 355 | 4.8 | 24.1 | 0.00 | 0.00 | 0.00 | 51 | 1019.3 |
| 20260904173225 | 25 | 355 | 4.8 | 24.1 | 0.00 | 0.00 | 0.00 | 50 | 1019.4 |
| 20260904172210 | 25 | 355 | 1.6 | 14.5 | 0.00 | 0.00 | 0.00 | 49 | 1019.3 |
| 20260904171721 | 25 | 329 | 3.2 | 20.9 | 0.00 | 0.00 | 0.00 | 48 | 1019.4 |
| 20260904171224 | 25 | 5 | 3.2 | 22.5 | 0.00 | 0.00 | 0.00 | 48 | 1019.4 |
| 20260904170712 | 25 | 41 | 6.4 | 22.5 | 0.00 | 0.00 | 0.00 | 48 | 1019.4 |
| 20260904170220 | 26 | 347 | 4.8 | 22.5 | 0.00 | 0.00 | 0.00 | 47 | 1019.4 |
| 20260904165723 | 26 | 355 | 3.2 | 29.0 | 0.00 | 0.00 | 0.00 | 47 | 1019.3 |
| 20260904165210 | 26 | 0 | 6.4 | 29.0 | 0.00 | 0.00 | 0.00 | 46 | 1019.3 |
| 20260904164710 | 26 | 293 | 11.3 | 29.0 | 0.00 | 0.00 | 0.00 | 46 | 1019.4 |
| 20260904164209 | 27 | 336 | 9.7 | 24.1 | 0.00 | 0.00 | 0.00 | 44 | 1019.4 |
| 20260904163721 | 27 | 51 | 4.8 | 20.9 | 0.00 | 0.00 | 0.00 | 43 | 1019.3 |
| 20260904163219 | 28 | 123 | 4.8 | 22.5 | 0.00 | 0.00 | 0.00 | 42 | 1019.3 |
| 20260904162719 | 28 | 355 | 4.8 | 29.0 | 0.00 | 0.00 | 0.00 | 43 | 1019.3 |
| 20260904162212 | 28 | 37 | 8.0 | 29.0 | 0.00 | 0.00 | 0.00 | 42 | 1019.3 |
| 20260904161726 | 28 | 80 | 8.0 | 29.0 | 0.00 | 0.00 | 0.00 | 41 | 1019.3 |
| 20260904161223 | 28 | 78 | 6.4 | 22.5 | 0.00 | 0.00 | 0.00 | 40 | 1019.2 |
| 20260904160717 | 28 | 344 | 4.8 | 24.1 | 0.00 | 0.00 | 0.00 | 40 | 1019.2 |
| 20260904155721 | 28 | 14 | 3.2 | 24.1 | 0.00 | 0.00 | 0.00 | 41 | 1019.1 |
| 20260904155226 | 28 | 5 | 3.2 | 14.5 | 0.00 | 0.00 | 0.00 | 40 | 1019.3 |
| 20260904154715 | 28 | 198 | 4.8 | 14.5 | 0.00 | 0.00 | 0.00 | 41 | 1019.2 |
| 20260904154220 | 28 | 150 | 3.2 | 12.9 | 0.00 | 0.00 | 0.00 | 41 | 1019.2 |
| 20260904153720 | 28 | 117 | 1.6 | 12.9 | 0.00 | 0.00 | 0.00 | 41 | 1019.2 |
| 20260904153229 | 28 | 136 | 1.6 | 12.9 | 0.00 | 0.00 | 0.00 | 40 | 1019.2 |